Regional Weather Roundup
Issued by NWS

Home | Current Version | Previous Version | Text Only | Print | Product List | Glossary Off
Versions: 1 2 3 4 5 6 7 8 9 10 11 12 13 14 15 16 17 18 19 20 21 22 23 24 25 26 27 28 29 30 31 32 33 34 35 36 37 38 39 40 41 42 43 44 45 46 47 48 49 50

000
ASUS43 KMKX 262121
RWRWI

WISCONSIN REGIONAL WEATHER ROUNDUP
NATIONAL WEATHER SERVICE MILWAUKEE/SULLIVAN WI
400 PM CDT TUE JUL 26 2016

NOTE: "FAIR" INDICATES FEW OR NO CLOUDS BELOW 12,000 FEET WITH NO
SIGNIFICANT WEATHER AND/OR OBSTRUCTIONS TO VISIBILITY.

WIZ001-002-006>008-014>016-023>028-262200-
NORTHWEST WISCONSIN

CITY           SKY/WX    TMP DP  RH WIND       PRES   REMARKS
SUPERIOR ARPT  PTSUNNY   85  70  61 W9        29.94S HX  90
ASHLAND        MOSUNNY   87  70  56 W12G17    29.93F HX  92
HAYWARD        MOSUNNY   84  68  58 VRB6      29.97F HX  87
SIREN          MOSUNNY   86  66  51 W9        29.97S HX  88
CUMBERLAND     SUNNY     86  61  42 SW12G17   29.98S HX  86
RICE LAKE      SUNNY     86  64  47 SW9G16    29.99S HX  87
CHETEK         SUNNY     88  66  48 SW10G20   29.97S HX  90
LADYSMITH      SUNNY     84  65  51 SW13      30.00S HX  86
EAU CLAIRE     SUNNY     89  63  41 SW16      29.97F HX  90
MENOMONIE      SUNNY     90  64  42 S16G22    29.98F HX  92
NEW RICHMOND   SUNNY     88  63  42 SW13G18   29.98S HX  89
OSCEOLA        SUNNY     89  62  40 SW13      30.00R HX  89
$$

WIZ003>005-009-010-017-018-262200-
NORTH CENTRAL WISCONSIN

CITY           SKY/WX    TMP DP  RH WIND       PRES   REMARKS
MANITOWISH WTR MOSUNNY   85  65  51 W8        29.98S HX  86
ARBOR VITAE    MOSUNNY   85  65  50 W10G17    29.98F HX  87
WOODRUFF       MOSUNNY   85  65  50 W10G17    29.98F HX  87
RHINELANDER    PTSUNNY   86  61  42 SW13      29.99F HX  86
EAGLE RIVER    MOSUNNY   86  58  39 W14G20    29.97F HX  85
LAND O LAKES   CLOUDY    85  58  39 W9G18     29.98F HX  85
PHILLIPS       MOSUNNY   85  67  55 SW12      29.98S HX  88
TOMAHAWK       CLOUDY    86  62  44 SW9       29.99F HX  86
MEDFORD        SUNNY     83  64  52 SW9G16    30.01S HX  85
MERRILL        SUNNY     87  64  44 W14G22    29.99F HX  88
$$

WIZ029-030-035-036-043>047-262200-
CENTRAL WISCONSIN

CITY           SKY/WX    TMP DP  RH WIND       PRES   REMARKS
WAUSAU         SUNNY     87  64  46 W12G18    29.99F HX  88
MOSINEE        SUNNY     86  64  48 SW12G17   30.02F HX  87
MARSHFIELD     SUNNY     86  65  49 W13       30.01F HX  88
STEVENS POINT  SUNNY     85  64  48 W8        30.02F HX  86
WAUPACA        SUNNY     90  64  42 SW8       30.01F HX  91
WAUTOMA        SUNNY     87  65  47 SW5       30.02F HX  89
WISC RAPIDS    MOSUNNY   88  62  41 SW10      30.02F HX  88
CAMP DOUGLAS   MOSUNNY   86  70  58 VRB2      30.02F HX  90
$$

WIZ011>013-019>022-031-037>040-048>050-262200-
NORTHEAST WISCONSIN

CITY           SKY/WX    TMP DP  RH WIND       PRES   REMARKS
ANTIGO         SUNNY     84  64  50 SW15      30.01F HX  85
SHAWANO        MOSUNNY   89  65  44 SW8G18    29.98F HX  91
OCONTO         SUNNY     87  69  54 SW10G16   29.96F HX  91
STURGEON BAY   SUNNY     87  67  51 SW13      29.99S HX  90
GREEN BAY      MOSUNNY   85  70  60 SW14      29.99F HX  89
MANITOWOC      SUNNY     85  63  47 MISG      30.01F HX  86
APPLETON       MOSUNNY   84  63  48 SW8       30.01S HX  85
CLINTONVILLE   MOSUNNY   88  63  42 SW12      29.99F HX  88
OSHKOSH        SUNNY     86  65  49 SW5       30.02S HX  88
$$

WIZ032>034-041-042-053>061-262200-
SOUTHWEST WISCONSIN

CITY           SKY/WX    TMP DP  RH WIND       PRES   REMARKS
LA CROSSE      SUNNY     88  66  48 SW6       30.00F HX  90
SPARTA         SUNNY     86  64  48 W6        30.02F HX  87
VIROQUA        SUNNY     85  62  46 CALM      30.05F HX  85
BOSCOBEL       SUNNY     88  64  44 CALM      30.02F HX  89
PRAIRIE DU CHI SUNNY     85  59  41 CALM      30.02F HX  84
PLATTEVILLE    SUNNY     83  68  58 CALM      30.05F HX  86
$$

WIZ056-057-062-063-064-067-068-262200-
SOUTH CENTRAL WISCONSIN

CITY           SKY/WX    TMP DP  RH WIND       PRES   REMARKS
REEDSBURG      SUNNY     85  67  55 NW5       30.03F HX  87
BARABOO/DELLS  SUNNY     85  64  49 SW3       30.04F HX  86
LONE ROCK      SUNNY     86  63  45 CALM      30.03F HX  87
MINERAL POINT  SUNNY     86  63  45 W3        30.06F HX  87
MADISON        MOSUNNY   85  64  49 NW7       30.03F HX  86
MIDDLETON      SUNNY     86  64  47 NW5       30.04F HX  87
WATERTOWN      SUNNY     84  65  51 SW5       30.03F HX  86
MONROE         MOSUNNY   82  61  47 E3        30.05S HX  83
JANESVILLE     MOSUNNY   88  63  42 W6        30.02F HX  88
$$

WIZ051-052-058>065-066-070>072-262200-
SOUTHEAST WISCONSIN

CITY           SKY/WX    TMP DP  RH WIND       PRES   REMARKS
MILWAUKEE      MOSUNNY   85  61  44 SE10      30.01F HX  85
WAUKESHA       MOSUNNY   84  57  39 NW5       30.03F HX  83
MILWAUKEE/TIMM SUNNY     86  52  30 E8        30.02F HX  84
RACINE         SUNNY     84  61  45 SE9       30.03F HX  84
BURLINGTON     SUNNY     86  60  40 CALM      30.02F HX  85
KENOSHA        SUNNY     85  62  46 VRB7      30.02F HX  85
FOND DU LAC    SUNNY     86  63  45 W6        30.02F HX  87
SHEBOYGAN      SUNNY     86  63  45 VRB5      30.01F HX  87
WEST BEND      MOSUNNY   86  59  39 W9        30.03S HX  85
JUNEAU         SUNNY     83  65  54 W6        30.04F HX  85
$$

LSZ147-162-262200-
LAKE SUPERIOR

STATION/POSITION TIME  TEMP    WIND        PRES    WAVE
                       AIR SEA DIR/SP/G            HT/PER
                 (UTC) (F)     (DEG/KT/KT) (MB)    (FT/S)
W MID LAKE BUOY  2050   69 66  230/  4/  4 1012.6F   0
DEVILS ISLAND    2100   72     240/ 15/ 17 1013.1R
SAXON HARBOR     2000   86     260/  8/ 12 1013.2S
$$

LMZ867-665-643>646-262200-
LAKE MICHIGAN

STATION/POSITION TIME  TEMP    WIND        PRES    WAVE
                       AIR SEA DIR/SP/G            HT/PER
                 (UTC) (F)     (DEG/KT/KT) (MB)    (FT/S)
CHAMBERS ISLAND  2000   83     190/  9/ 14 1014.6F
S GREEN BAY BUOY 2000   79 76  200/ 10/ 12   N/A
N MID LAKE BUOY  2050   72 71  200/ 14/ 16 1013.9F   1/ 3
NORTHPORT PIER   2000   83     160/  3/ 11 1014.6F
SISTER BAY       2021   88     230/ 15/ 17   N/A
ALGOMA LAKESHORE 2043          200/ 12/ 15   N/A
KEWAUNEE LAKESHO 2000   64     170/ 11/ 14 1015.4F
SHEBOYGAN LAKESH 2100   75     170/ 13/ 13 1016.2F
PORT WASHINGTON  2040   79     180/  5/  8 1017.3F
ATWATER BUOY     2100   67 55  200/  4/  6 1018.0F
MILWAUKEE LAKESH 2010   71     110/  2/  3   N/A
S MID LAKE BUOY  2050   76 77  260/  4/  6 1016.3F   0
KENOSHA   LAKESH 2100   78     130/  8/  8 1015.9F
$$

TC  - TEMPERATURE IN CELSIUS
VSB - VISIBILITY IN STATUTE MILES
WCI - WIND CHILL INDEX
HX  - HEAT INDEX





USA.gov is the U.S. government's official web portal to all federal, state and local government web resources and services.